Atlanta Dekalb, GA

11:18 PM EST on February 23, 2018 (GMT -0500)
Dekalb-Peachtree

Weather History for KPDK - May, 2013

Change the Weather History Date:

Monday, May 6, 2013

  Actual Average Record
Temperature  
Mean Temperature 52 °F 67 °F  
Max Temperature 59 °F 78 °F 89 °F (2012)
Min Temperature 44 °F 56 °F 44 °F (2013)
Degree Days  
Heating Degree Days 14    
Cooling Degree Days 0 3  
Month to date cooling degree days 0 18  
Year to date cooling degree days 35 67  
Moisture  
Dew Point 47 °F    
Average Humidity 84    
Maximum Humidity 100    
Minimum Humidity 67    
Precipitation  
Precipitation 0.17 in 0.15 in 2.24 in (2003)
Month to date precipitation 3.88 0.80  
Year to date precipitation 8.55 19.24  
Sea Level Pressure  
Sea Level Pressure 29.87 in    
Wind  
Wind Speed 4 mph (SSW)    
Max Wind Speed 13 mph    
Max Gust Speed 17 mph    
Visibility 8 miles    
Events Rain    
T = Trace of Precipitation, MM = Missing Value Source: NWS Daily Summary

Daily Weather History Graph

Daily Weather History Graph

Search for Another Location

Airport or City:

Trip Planner

Search our weather history database for the weather conditions in past years. The results will help you decide how hot, cold, wet, or windy it might be!

Date:

Astronomy

May. 06, 2013 Rise Set
Actual Time 6:43 AM EDT 8:24 PM EDT
Civil Twilight 6:16 AM EDT 8:51 PM EDT
Nautical Twilight 5:43 AM EDT 9:24 PM EDT
Astronomical Twilight 5:09 AM EDT 9:58 PM EDT
Moon 4:35 AM EDT (5/6) 5:31 PM EDT (5/6)
Length of Visible Light 14h 35m
Length of Day
13h 41m
Waning Crescent, 11% of the Moon is Illuminated
May 6
Waning Crescent
May 9
New
May 18
First Quarter
May 25
Full
May 31
Last Quarter

Hourly Weather History & Observations

Time (EDT) Temp. Windchill Dew Point Humidity Pressure Visibility Wind Dir Wind Speed Gust Speed Precip Events Conditions
12:30 AM 48.2 °F - 48.2 °F 100% 29.83 in 4.0 mi SSW 3.5 mph - N/A   Mostly Cloudy
12:38 AM 48.2 °F - 46.4 °F 93% 29.83 in 5.0 mi SSW 5.8 mph - N/A   Scattered Clouds
12:53 AM 48.9 °F - 46.9 °F 93% 29.84 in 8.0 mi SW 9.2 mph - N/A   Mostly Cloudy
1:23 AM 48.2 °F - 46.4 °F 93% 29.83 in 8.0 mi SSW 6.9 mph - N/A   Scattered Clouds
1:53 AM 46.9 °F - 46.0 °F 97% 29.83 in 8.0 mi SSW 5.8 mph - N/A   Scattered Clouds
2:04 AM 46.4 °F 42.9 °F 46.4 °F 100% 29.83 in 8.0 mi SW 6.9 mph - 0.01 in   Mostly Cloudy
2:53 AM 46.9 °F - 45.0 °F 93% 29.82 in 10.0 mi WSW 8.1 mph - 0.01 in   Overcast
3:21 AM 46.4 °F 43.5 °F 44.6 °F 93% 29.82 in 10.0 mi SSW 5.8 mph - N/A   Overcast
3:34 AM 46.4 °F 43.5 °F 44.6 °F 93% 29.82 in 10.0 mi SW 5.8 mph - N/A   Overcast
3:53 AM 46.0 °F 43.1 °F 44.1 °F 93% 29.81 in 10.0 mi SSW 5.8 mph - N/A   Scattered Clouds
4:53 AM 44.1 °F 41.5 °F 43.0 °F 96% 29.83 in 10.0 mi SSW 4.6 mph - N/A   Clear
5:18 AM 44.6 °F - 44.6 °F 100% 29.83 in 7.0 mi Calm Calm - N/A   Mostly Cloudy
5:53 AM 45.0 °F 43.5 °F 45.0 °F 100% 29.83 in 8.0 mi SSE 3.5 mph - N/A   Overcast
6:15 AM 46.4 °F 45.2 °F 44.6 °F 93% 29.83 in 7.0 mi SSE 3.5 mph - N/A   Overcast
6:18 AM 46.4 °F 45.2 °F 44.6 °F 93% 29.83 in 7.0 mi SSE 3.5 mph - N/A   Overcast
6:53 AM 46.0 °F 44.8 °F 45.0 °F 96% 29.85 in 4.0 mi South 3.5 mph - 0.00 in Rain Light Rain
7:21 AM 46.4 °F 43.5 °F 46.4 °F 100% 29.85 in 3.0 mi South 5.8 mph - 0.01 in Rain Light Rain
7:28 AM 46.4 °F 43.5 °F 46.4 °F 100% 29.85 in 3.0 mi South 5.8 mph - 0.01 in Rain Light Rain
7:53 AM 46.9 °F - 46.0 °F 97% 29.87 in 4.0 mi South 5.8 mph - 0.01 in   Overcast
7:56 AM 46.4 °F 43.5 °F 46.4 °F 100% 29.86 in 2.5 mi South 5.8 mph - N/A   Overcast
8:14 AM 48.2 °F - 46.4 °F 93% 29.87 in 5.0 mi Variable 3.5 mph - N/A   Overcast
8:53 AM 48.9 °F - 46.9 °F 93% 29.89 in 8.0 mi SSW 6.9 mph - N/A   Overcast
9:00 AM 48.2 °F - 46.4 °F 93% 29.88 in 8.0 mi SW 8.1 mph - N/A   Overcast
9:53 AM 50.0 °F - 46.9 °F 89% 29.90 in 9.0 mi SSW 5.8 mph - N/A   Overcast
10:53 AM 50.0 °F - 46.9 °F 89% 29.90 in 9.0 mi South 5.8 mph - N/A   Overcast
11:17 AM 50.0 °F - 46.4 °F 87% 29.91 in 10.0 mi SW 4.6 mph - N/A   Overcast
11:53 AM 52.0 °F - 46.9 °F 83% 29.92 in 10.0 mi SSW 6.9 mph - N/A   Overcast
12:53 PM 54.0 °F - 46.9 °F 77% 29.92 in 10.0 mi SW 6.9 mph - N/A   Overcast
1:00 PM 53.6 °F - 46.4 °F 77% 29.91 in 10.0 mi SW 8.1 mph - N/A   Overcast
1:53 PM 55.9 °F - 46.0 °F 69% 29.91 in 10.0 mi SW 4.6 mph - N/A   Overcast
2:00 PM 55.4 °F - 46.4 °F 72% 29.90 in 10.0 mi SSW 12.7 mph 17.3 mph N/A   Overcast
2:53 PM 57.0 °F - 46.9 °F 69% 29.90 in 10.0 mi Variable 5.8 mph - N/A   Overcast
3:53 PM 57.9 °F - 46.0 °F 65% 29.89 in 10.0 mi South 4.6 mph - N/A   Overcast
4:53 PM 55.9 °F - 48.9 °F 77% 29.89 in 6.0 mi SW 6.9 mph - 0.00 in Rain Light Rain
5:53 PM 55.0 °F - 48.9 °F 80% 29.89 in 10.0 mi SSE 4.6 mph - 0.00 in   Overcast
6:53 PM 54.0 °F - 51.1 °F 90% 29.89 in 5.0 mi South 3.5 mph - 0.01 in Rain Light Rain
7:53 PM 54.0 °F - 51.1 °F 90% 29.88 in 10.0 mi Calm Calm - 0.00 in   Mostly Cloudy
8:53 PM 53.1 °F - 50.0 °F 89% 29.89 in 10.0 mi Calm Calm - N/A   Scattered Clouds
9:53 PM 53.1 °F - 50.0 °F 89% 29.90 in 10.0 mi Calm Calm - 0.00 in Rain Light Rain
10:10 PM 53.6 °F - 51.8 °F 94% 29.90 in 7.0 mi Calm Calm - 0.01 in Rain Light Rain
10:53 PM 52.0 °F - 52.0 °F 100% 29.91 in 4.0 mi Calm Calm - 0.06 in Rain Rain
11:09 PM 51.8 °F - 51.8 °F 100% 29.89 in 3.0 mi ENE 3.5 mph - 0.06 in Rain Heavy Rain
11:21 PM 53.6 °F - 51.8 °F 94% 29.89 in 5.0 mi Calm Calm - 0.08 in Rain Light Rain
11:53 PM 52.0 °F - 51.1 °F 97% 29.89 in 6.0 mi Calm Calm - 0.08 in   Mostly Cloudy